Weather History for KMTN - March, 2014

Change the Weather History Date:

Thursday, March 27, 2014

  Actual Average Record
Temperature  
Mean Temperature 33 °F -  
Max Temperature 42 °F 54 °F 82 °F (2007)
Min Temperature 24 °F 38 °F 23 °F (2001)
Degree Days  
Heating Degree Days 32    
Moisture  
Dew Point 18 °F    
Average Humidity 54    
Maximum Humidity 87    
Minimum Humidity 38    
Precipitation  
Precipitation 0.00 in - - ()
Sea Level Pressure  
Sea Level Pressure 30.37 in    
Wind  
Wind Speed 7 mph (South)    
Max Wind Speed 18 mph    
Max Gust Speed 18 mph    
Visibility 10 miles    
Events      
Averages and records for this station are not official NWS values.
T = Trace of Precipitation, MM = Missing Value Source: NWS Daily Summary

Daily Weather History Graph

Daily Weather History Graph

Search for Another Location

Airport or City:

Trip Planner

Search our weather history database for the weather conditions in past years. The results will help you decide how hot, cold, wet, or windy it might be!

Date:

Astronomy

Mar. 27, 2014 Rise Set
Actual Time 6:57 AM EDT 7:24 PM EDT
Civil Twilight 6:31 AM EDT 7:51 PM EDT
Nautical Twilight 5:59 AM EDT 8:23 PM EDT
Astronomical Twilight 5:27 AM EDT 8:55 PM EDT
Moon 4:46 AM EDT (3/27) 4:10 PM EDT (3/27)
Length of Visible Light 13h 20m
Length of Day
12h 26m
Waning Crescent, 13% of the Moon is Illuminated
Mar 27
Waning Crescent
Mar 30
New
Apr 7
First Quarter
Apr 15
Full
Apr 22
Last Quarter

Hourly Weather History & Observations

Time (EDT) Temp. Windchill Dew Point Humidity Pressure Visibility Wind Dir Wind Speed Gust Speed Precip Events Conditions
12:15 AM 30.2 °F 21.9 °F 10.4 °F 44% 30.35 in 10.0 mi West 9.2 mph - N/A   Clear
12:36 AM 30.2 °F 23.4 °F 8.6 °F 40% 30.35 in 10.0 mi West 6.9 mph - N/A   Clear
12:54 AM 30.2 °F 23.4 °F 8.6 °F 40% 30.36 in 10.0 mi West 6.9 mph - N/A   Clear
1:15 AM 30.2 °F 23.4 °F 10.4 °F 44% 30.36 in 10.0 mi West 6.9 mph - N/A   Clear
1:36 AM 30.2 °F 24.3 °F 8.6 °F 40% 30.37 in 10.0 mi West 5.8 mph - N/A   Clear
1:54 AM 30.2 °F 24.3 °F 8.6 °F 40% 30.38 in 10.0 mi WSW 5.8 mph - N/A   Clear
2:15 AM 30.2 °F 22.6 °F 10.4 °F 44% 30.39 in 10.0 mi West 8.1 mph - N/A   Clear
2:36 AM 28.4 °F 19.7 °F 10.4 °F 47% 30.39 in 10.0 mi West 9.2 mph - N/A   Clear
2:54 AM 28.4 °F 21.2 °F 10.4 °F 47% 30.40 in 10.0 mi West 6.9 mph - N/A   Clear
3:15 AM 28.4 °F - 10.4 °F 47% 30.40 in 10.0 mi Calm Calm - N/A   Clear
3:36 AM 26.6 °F 19.1 °F 12.2 °F 55% 30.41 in 10.0 mi West 6.9 mph - N/A   Clear
3:57 AM 26.6 °F 20.0 °F 12.2 °F 55% 30.40 in 10.0 mi West 5.8 mph - N/A   Clear
4:15 AM 26.6 °F 21.2 °F 10.4 °F 51% 30.39 in 10.0 mi WNW 4.6 mph - N/A   Clear
4:36 AM 26.6 °F - 10.4 °F 51% 30.38 in 10.0 mi Calm Calm - N/A   Clear
4:57 AM 26.6 °F - 10.4 °F 51% 30.40 in 10.0 mi Calm Calm - N/A   Clear
5:12 AM 26.6 °F 22.6 °F 12.2 °F 55% 30.41 in 10.0 mi WSW 3.5 mph - N/A   Clear
5:27 AM 26.6 °F 22.6 °F 12.2 °F 55% 30.42 in 10.0 mi WSW 3.5 mph - N/A   Clear
5:45 AM 26.6 °F - 10.4 °F 51% 30.42 in 10.0 mi Calm Calm - N/A   Clear
6:45 AM 24.8 °F - 12.2 °F 59% 30.43 in 10.0 mi Calm Calm - N/A   Clear
7:45 AM 28.4 °F - 17.6 °F 64% - 10.0 mi Calm Calm - N/A   Clear
8:55 AM 32.0 °F - 10.4 °F 41% 30.47 in 10.0 mi Calm Calm - N/A   Partly Cloudy
9:55 AM 33.8 °F 30.8 °F 10.4 °F 38% 30.47 in 10.0 mi SE 3.5 mph - N/A   Partly Cloudy
10:50 AM 35.6 °F 29.2 °F 15.8 °F 44% 30.48 in 10.0 mi SE 8.1 mph - N/A   Partly Cloudy
11:55 AM 37.4 °F 31.4 °F 19.4 °F 48% 30.47 in 10.0 mi SE 8.1 mph - N/A   Scattered Clouds
12:55 PM 39.2 °F 32.5 °F 19.4 °F 45% 30.45 in 10.0 mi ESE 10.4 mph - N/A   Scattered Clouds
1:50 PM 39.2 °F 33.0 °F 26.6 °F 61% 30.42 in 10.0 mi SE 9.2 mph - N/A   Scattered Clouds
2:55 PM 41.0 °F 33.5 °F 21.2 °F 45% 30.39 in 10.0 mi ESE 13.8 mph - N/A   Mostly Cloudy
3:55 PM 42.8 °F 35.1 °F 24.8 °F 49% 30.35 in 10.0 mi SE 16.1 mph - N/A   Mostly Cloudy
4:55 PM 42.8 °F 34.8 °F 24.8 °F 49% 30.33 in 10.0 mi SSE 17.3 mph - N/A   Mostly Cloudy
5:50 PM 42.8 °F 35.1 °F 28.4 °F 57% 30.32 in 10.0 mi SE 16.1 mph - N/A   Mostly Cloudy
6:50 PM 42.8 °F 34.5 °F 26.6 °F 53% 30.31 in 10.0 mi SE 18.4 mph - N/A   Mostly Cloudy
7:45 PM 41.0 °F 32.8 °F 28.4 °F 61% 30.31 in 10.0 mi SE 16.1 mph - N/A   Mostly Cloudy
8:45 PM 41.0 °F 33.5 °F 28.4 °F 61% 30.30 in 10.0 mi SE 13.8 mph - N/A   Scattered Clouds
9:45 PM 41.0 °F 33.9 °F 28.4 °F 61% 30.28 in 10.0 mi SE 12.7 mph - N/A   Scattered Clouds
10:18 PM 39.2 °F 31.2 °F 30.2 °F 70% 30.28 in 10.0 mi SSE 13.8 mph 18.4 mph N/A   Clear
10:39 PM 39.2 °F 32.5 °F 32.0 °F 75% 30.28 in 10.0 mi SE 10.4 mph - N/A   Clear
10:57 PM 39.2 °F 32.5 °F 32.0 °F 75% 30.27 in 10.0 mi SE 10.4 mph - N/A   Clear
11:18 PM 39.2 °F 32.5 °F 32.0 °F 75% 30.26 in 10.0 mi SE 10.4 mph - N/A   Clear
11:39 PM 37.4 °F 31.4 °F 32.0 °F 81% 30.26 in 10.0 mi SE 8.1 mph - N/A   Clear
11:57 PM 37.4 °F 32.1 °F 33.8 °F 87% 30.25 in 10.0 mi SE 6.9 mph - N/A   Clear